Cando, ND

12:49 PM CDT on October 23, 2017 (GMT -0500)
Cando

Weather History for K9D7 - February, 2013

Change the Weather History Date:

Tuesday, February 19, 2013

  Actual Average (KDVL) Record (KDVL)
Temperature  
Mean Temperature -10 °F -  
Max Temperature -4 °F 20 °F 41 °F (2016)
Min Temperature -16 °F 5 °F -35 °F (1966)
Degree Days  
Heating Degree Days 75    
Moisture  
Dew Point -21 °F    
Average Humidity 64    
Maximum Humidity 71    
Minimum Humidity 55    
Precipitation  
Precipitation 0.00 in - - ()
Sea Level Pressure  
Sea Level Pressure 30.37 in    
Wind  
Wind Speed 16 mph (North)    
Max Wind Speed 26 mph    
Max Gust Speed 34 mph    
Visibility 10 miles    
Events      
Averages and records for this station are not official NWS values.
T = Trace of Precipitation, MM = Missing Value Source: NWS Daily Summary

Daily Weather History Graph

Daily Weather History Graph

Search for Another Location

Airport or City:

Trip Planner

Search our weather history database for the weather conditions in past years. The results will help you decide how hot, cold, wet, or windy it might be!

Date:

Astronomy

Feb. 19, 2013 Rise Set
Actual Time 7:36 AM CST 6:05 PM CST
Civil Twilight 7:04 AM CST 6:37 PM CST
Nautical Twilight 6:28 AM CST 7:14 PM CST
Astronomical Twilight 5:52 AM CST 7:50 PM CST
Moon 12:23 PM CST (2/19) 3:24 AM CST (2/19)
Length of Visible Light 11h 32m
Length of Day
10h 28m
Waxing Gibbous, 67% of the Moon is Illuminated
Feb 19
Waxing Gibbous
Feb 25
Full
Mar 4
Last Quarter
Mar 11
New
Mar 19
First Quarter

Hourly Weather History & Observations

Time (CST) Temp. Windchill Dew Point Humidity Pressure Visibility Wind Dir Wind Speed Gust Speed Precip Events Conditions
12:15 AM -9.4 °F -30.6 °F -16.6 °F 71% 30.25 in 10.0 mi North 13.8 mph - N/A   Clear
12:35 AM -9.4 °F -32.1 °F -16.6 °F 71% 30.25 in 10.0 mi North 16.1 mph - N/A   Clear
12:55 AM -9.4 °F -32.1 °F -18.4 °F 65% 30.26 in 10.0 mi North 16.1 mph - N/A   Clear
1:15 AM -9.4 °F -31.4 °F -18.4 °F 65% 30.27 in 10.0 mi North 15.0 mph - N/A   Clear
1:35 AM -11.2 °F -36.4 °F -18.4 °F 70% 30.26 in 10.0 mi North 19.6 mph 23.0 mph N/A   Clear
1:55 AM -11.2 °F -35.2 °F -18.4 °F 70% 30.27 in 10.0 mi North 17.3 mph 27.6 mph N/A   Clear
2:15 AM -11.2 °F -37.0 °F -18.4 °F 70% 30.27 in 10.0 mi North 20.7 mph - N/A   Clear
2:35 AM -11.2 °F -37.6 °F -20.2 °F 64% 30.28 in 10.0 mi North 21.9 mph 31.1 mph N/A   Clear
2:55 AM -11.2 °F -37.0 °F -20.2 °F 64% 30.28 in 10.0 mi North 20.7 mph 29.9 mph N/A   Clear
3:15 AM -11.2 °F -38.2 °F -20.2 °F 64% 30.29 in 10.0 mi North 23.0 mph 26.5 mph N/A   Clear
3:35 AM -11.2 °F -39.7 °F -20.2 °F 64% 30.28 in 9.0 mi North 26.5 mph - N/A   Clear
3:55 AM -11.2 °F -39.7 °F -20.2 °F 64% 30.28 in 6.0 mi North 26.5 mph 32.2 mph N/A   Haze
4:15 AM - - - N/A% 30.28 in 6.0 mi North 26.5 mph 34.5 mph N/A   Haze
4:35 AM -13.0 °F -41.6 °F -20.2 °F 70% 30.28 in 10.0 mi North 25.3 mph 34.5 mph N/A   Clear
4:55 AM -13.0 °F -40.6 °F -20.2 °F 70% 30.30 in 10.0 mi North 23.0 mph - N/A   Clear
5:15 AM -13.0 °F -38.8 °F -20.2 °F 70% 30.31 in 10.0 mi North 19.6 mph 24.2 mph N/A   Clear
6:15 AM -13.0 °F -36.8 °F -22.0 °F 64% 30.34 in 10.0 mi North 16.1 mph - N/A   Clear
6:35 AM -13.0 °F -37.5 °F -22.0 °F 64% 30.35 in 10.0 mi North 17.3 mph 23.0 mph N/A   Clear
6:55 AM -14.8 °F -40.5 °F -22.0 °F 70% 30.35 in 10.0 mi North 18.4 mph 23.0 mph N/A   Clear
7:15 AM -14.8 °F -39.1 °F -23.8 °F 64% 30.37 in 10.0 mi NNW 16.1 mph - N/A   Clear
7:35 AM -16.6 °F -41.4 °F -25.6 °F 64% 30.37 in 10.0 mi NNW 16.1 mph - N/A   Clear
7:55 AM -16.6 °F -41.4 °F -25.6 °F 64% 30.37 in 10.0 mi NNW 16.1 mph - N/A   Clear
8:15 AM -16.6 °F -39.8 °F -25.6 °F 64% 30.38 in 10.0 mi North 13.8 mph - N/A   Clear
8:35 AM -14.8 °F -35.6 °F -23.8 °F 64% 30.38 in 10.0 mi NNW 11.5 mph - N/A   Clear
8:55 AM -14.8 °F -39.1 °F -23.8 °F 64% 30.39 in 10.0 mi NNW 16.1 mph - N/A   Clear
9:15 AM -14.8 °F -39.1 °F -23.8 °F 64% 30.39 in 10.0 mi North 16.1 mph - N/A   Clear
9:35 AM -13.0 °F -36.8 °F -22.0 °F 64% 30.40 in 10.0 mi North 16.1 mph - N/A   Clear
9:55 AM -13.0 °F -36.0 °F -22.0 °F 64% 30.40 in 10.0 mi North 15.0 mph - N/A   Clear
10:15 AM -13.0 °F -36.8 °F -22.0 °F 64% 30.40 in 8.0 mi North 16.1 mph - N/A   Clear
10:35 AM - - - N/A% 30.41 in 5.0 mi North 16.1 mph - N/A   Haze
10:55 AM -11.2 °F -35.2 °F -20.2 °F 64% 30.42 in 7.0 mi North 17.3 mph - N/A   Clear
11:15 AM -11.2 °F -33.7 °F -20.2 °F 64% 30.43 in 10.0 mi North 15.0 mph - N/A   Clear
11:35 AM -9.4 °F -32.8 °F -20.2 °F 59% 30.43 in 10.0 mi North 17.3 mph - N/A   Clear
11:55 AM -9.4 °F -32.1 °F -20.2 °F 59% 30.44 in 10.0 mi North 16.1 mph - N/A   Clear
12:15 PM -9.4 °F -32.1 °F -20.2 °F 59% 30.43 in 10.0 mi North 16.1 mph - N/A   Clear
12:35 PM -9.4 °F -32.1 °F -18.4 °F 65% 30.42 in 10.0 mi NNE 16.1 mph - N/A   Clear
12:55 PM -7.6 °F -28.3 °F -18.4 °F 59% 30.42 in 10.0 mi NNE 13.8 mph - N/A   Clear
1:15 PM -7.6 °F -29.1 °F -18.4 °F 59% 30.41 in 10.0 mi NNE 15.0 mph - N/A   Clear
1:35 PM -7.6 °F -29.1 °F -18.4 °F 59% 30.42 in 10.0 mi North 15.0 mph - N/A   Clear
1:55 PM -7.6 °F -29.8 °F -16.6 °F 65% 30.41 in 10.0 mi North 16.1 mph - N/A   Clear
2:15 PM -5.8 °F -25.2 °F -16.6 °F 60% 30.42 in 10.0 mi North 12.7 mph - N/A   Clear
2:35 PM -4.0 °F -23.7 °F -16.6 °F 55% 30.41 in 10.0 mi North 13.8 mph - N/A   Clear
2:55 PM -4.0 °F -24.5 °F -16.6 °F 55% 30.41 in 10.0 mi North 15.0 mph - N/A   Clear
3:15 PM -4.0 °F -23.7 °F -16.6 °F 55% 30.41 in 10.0 mi North 13.8 mph - N/A   Clear
3:35 PM -4.0 °F -24.5 °F -16.6 °F 55% 30.40 in 10.0 mi NNE 15.0 mph - N/A   Clear
3:55 PM -4.0 °F -23.0 °F -16.6 °F 55% 30.40 in 10.0 mi North 12.7 mph - N/A   Clear
4:15 PM -4.0 °F -23.0 °F -16.6 °F 55% 30.41 in 10.0 mi North 12.7 mph - N/A   Clear
4:35 PM -4.0 °F -21.2 °F -16.6 °F 55% 30.41 in 10.0 mi North 10.4 mph - N/A   Clear
4:55 PM -4.0 °F -22.1 °F -16.6 °F 55% 30.41 in 10.0 mi North 11.5 mph - N/A   Clear
5:15 PM -5.8 °F -23.4 °F -16.6 °F 60% 30.41 in 10.0 mi North 10.4 mph - N/A   Clear
6:35 PM -11.2 °F -27.8 °F -20.2 °F 64% 30.41 in 10.0 mi North 8.1 mph - N/A   Clear
6:55 PM -11.2 °F -29.0 °F -20.2 °F 64% 30.40 in 10.0 mi NNE 9.2 mph - N/A   Clear
7:15 PM -13.0 °F -33.4 °F -20.2 °F 70% 30.40 in 10.0 mi NNE 11.5 mph - N/A   Clear
7:35 PM -13.0 °F -30.0 °F -20.2 °F 70% 30.40 in 10.0 mi NNE 8.1 mph - N/A   Clear
7:55 PM -13.0 °F -30.0 °F -22.0 °F 64% 30.41 in 10.0 mi North 8.1 mph - N/A   Clear
8:15 PM -13.0 °F -31.3 °F -22.0 °F 64% 30.41 in 10.0 mi North 9.2 mph - N/A   Clear
8:35 PM -16.6 °F -31.3 °F -23.8 °F 70% 30.42 in 10.0 mi NNE 5.8 mph - N/A   Clear
8:55 PM -16.6 °F -35.7 °F -23.8 °F 70% 30.42 in 10.0 mi NNE 9.2 mph - N/A   Clear
9:15 PM -14.8 °F -30.8 °F -22.0 °F 70% 30.42 in 10.0 mi NE 6.9 mph - N/A   Clear
9:35 PM -16.6 °F -31.3 °F -25.6 °F 64% 30.42 in 10.0 mi NNE 5.8 mph - N/A   Clear
9:55 PM -16.6 °F -34.4 °F -25.6 °F 64% 30.42 in 10.0 mi NNE 8.1 mph - N/A   Clear
10:15 PM -16.6 °F -26.8 °F -25.6 °F 64% 30.43 in 10.0 mi NNW 3.5 mph - N/A   Clear
10:35 PM -16.6 °F -32.9 °F -25.6 °F 64% 30.43 in 10.0 mi North 6.9 mph - N/A   Clear
10:55 PM -16.6 °F -32.9 °F -25.6 °F 64% 30.43 in 10.0 mi NNE 6.9 mph - N/A   Clear
11:15 PM -16.6 °F - -25.6 °F 64% 30.43 in 10.0 mi Calm Calm - N/A   Clear
11:35 PM -16.6 °F -26.8 °F -23.8 °F 70% 30.42 in 10.0 mi NE 3.5 mph - N/A   Clear